Total_Precipitation_Accumulation
0.27 0.26 0.34 0.55 0.65 0.63 0.62 0.68 0.90 0.90 0.82 0.77 0.73 0.75 0.77 0.81 0.79 0.70 0.65 0.66 0.71 0.77 0.78 0.75 0.71 0.76 0.79 0.84 0.95 1.10 1.24 1.23 1.09 0.91 0.78 0.71 0.66 0.58 0.56 0.57 0.57 0.65 0.72 0.74
0.15 0.14 0.23 0.38 0.49 0.50 0.47 0.47 0.56 0.62 0.62 0.52 0.50 0.54 0.55 0.58 0.53 0.49 0.45 0.43 0.42 0.44 0.44 0.43 0.39 0.37 0.38 0.46 0.62 0.86 1.12 1.10 0.91 0.73 0.60 0.54 0.55 0.54 0.52 0.50 0.55 0.60 0.57 0.61
0.17 0.12 0.19 0.41 0.43 0.40 0.41 0.33 0.34 0.40 0.40 0.36 0.39 0.45 0.47 0.52 0.54 0.41 0.33 0.31 0.30 0.30 0.30 0.29 0.28 0.27 0.29 0.37 0.49 0.65 0.77 0.75 0.66 0.55 0.52 0.55 0.56 0.51 0.50 0.50 0.51 0.53 0.51 0.51
0.19 0.21 0.47 0.68 0.58 0.49 0.45 0.27 0.19 0.21 0.23 0.26 0.37 0.40 0.42 0.41 0.42 0.41 0.30 0.22 0.22 0.21 0.22 0.25 0.26 0.30 0.34 0.38 0.43 0.47 0.50 0.52 0.47 0.45 0.47 0.50 0.51 0.50 0.57 0.61 0.59 0.58 0.60 0.57
0.29 0.36 0.56 0.62 0.54 0.53 0.52 0.37 0.18 0.15 0.15 0.15 0.15 0.17 0.20 0.22 0.20 0.21 0.17 0.14 0.13 0.12 0.13 0.15 0.15 0.16 0.17 0.20 0.21 0.22 0.21 0.22 0.23 0.23 0.26 0.28 0.29 0.36 0.47 0.54 0.57 0.61 0.64 0.64
0.34 0.43 0.55 0.44 0.27 0.28 0.42 0.52 0.16 0.09 0.09 0.07 0.06 0.10 0.12 0.13 0.14 0.12 0.10 0.11 0.10 0.09 0.10 0.12 0.12 0.12 0.10 0.10 0.11 0.11 0.10 0.11 0.13 0.14 0.15 0.15 0.18 0.23 0.29 0.30 0.36 0.46 0.49 0.51
0.32 0.52 0.70 0.50 0.29 0.27 0.48 0.50 0.14 0.06 0.05 0.04 0.06 0.06 0.07 0.10 0.12 0.11 0.10 0.11 0.11 0.10 0.10 0.11 0.12 0.12 0.11 0.11 0.10 0.12 0.14 0.16 0.17 0.16 0.16 0.16 0.16 0.19 0.23 0.23 0.27 0.31 0.35 0.40
0.41 0.71 0.89 0.67 0.46 0.42 0.35 0.16 0.08 0.04 0.03 0.03 0.04 0.04 0.06 0.08 0.10 0.10 0.10 0.10 0.11 0.10 0.10 0.11 0.12 0.12 0.12 0.13 0.13 0.13 0.14 0.15 0.16 0.16 0.17 0.16 0.17 0.20 0.23 0.25 0.24 0.25 0.26 0.31
0.36 0.58 0.59 0.51 0.40 0.30 0.23 0.12 0.05 0.03 0.03 0.03 0.03 0.03 0.05 0.07 0.07 0.07 0.08 0.08 0.09 0.11 0.11 0.12 0.12 0.12 0.11 0.13 0.14 0.14 0.14 0.15 0.17 0.18 0.17 0.15 0.17 0.20 0.22 0.25 0.26 0.28 0.29 0.34
0.14 0.19 0.21 0.23 0.22 0.15 0.12 0.08 0.04 0.03 0.03 0.04 0.04 0.03 0.04 0.06 0.08 0.07 0.08 0.08 0.09 0.11 0.12 0.13 0.14 0.13 0.15 0.14 0.13 0.13 0.15 0.16 0.18 0.18 0.18 0.18 0.19 0.20 0.22 0.24 0.28 0.31 0.36 0.39
0.14 0.10 0.08 0.11 0.13 0.11 0.08 0.05 0.03 0.03 0.04 0.04 0.04 0.06 0.06 0.07 0.10 0.11 0.10 0.11 0.14 0.14 0.14 0.14 0.15 0.16 0.18 0.18 0.15 0.13 0.14 0.15 0.15 0.16 0.17 0.18 0.18 0.19 0.20 0.21 0.27 0.36 0.41 0.44
0.15 0.10 0.10 0.10 0.09 0.08 0.07 0.05 0.04 0.03 0.04 0.05 0.05 0.06 0.07 0.08 0.09 0.11 0.12 0.12 0.15 0.16 0.16 0.15 0.15 0.17 0.18 0.20 0.22 0.22 0.19 0.16 0.15 0.15 0.16 0.16 0.17 0.18 0.20 0.21 0.26 0.30 0.31 0.33
0.11 0.09 0.08 0.07 0.07 0.06 0.06 0.05 0.04 0.04 0.05 0.06 0.07 0.08 0.09 0.09 0.09 0.11 0.13 0.13 0.13 0.13 0.14 0.14 0.13 0.12 0.12 0.14 0.15 0.16 0.18 0.18 0.16 0.15 0.16 0.17 0.18 0.19 0.22 0.20 0.18 0.19 0.22 0.24
0.07 0.09 0.09 0.08 0.07 0.06 0.06 0.06 0.05 0.05 0.05 0.06 0.07 0.08 0.09 0.09 0.08 0.09 0.10 0.10 0.11 0.13 0.13 0.13 0.12 0.11 0.11 0.10 0.10 0.12 0.13 0.16 0.16 0.19 0.20 0.21 0.24 0.27 0.30 0.33 0.31 0.24 0.21 0.22
0.06 0.07 0.08 0.08 0.08 0.08 0.08 0.08 0.08 0.08 0.08 0.09 0.09 0.09 0.09 0.08 0.08 0.08 0.09 0.10 0.11 0.13 0.13 0.14 0.13 0.11 0.10 0.10 0.10 0.10 0.10 0.12 0.16 0.23 0.27 0.26 0.28 0.34 0.36 0.31 0.28 0.27 0.26 0.24
0.09 0.08 0.09 0.09 0.11 0.10 0.08 0.08 0.09 0.09 0.09 0.09 0.11 0.11 0.10 0.08 0.08 0.08 0.09 0.11 0.12 0.13 0.14 0.15 0.15 0.14 0.13 0.11 0.10 0.09 0.11 0.15 0.17 0.22 0.25 0.25 0.27 0.30 0.31 0.31 0.30 0.32 0.32 0.32
0.12 0.12 0.13 0.14 0.14 0.12 0.09 0.09 0.09 0.09 0.10 0.11 0.12 0.12 0.12 0.12 0.11 0.11 0.10 0.10 0.11 0.13 0.13 0.14 0.15 0.15 0.14 0.12 0.11 0.11 0.13 0.15 0.18 0.21 0.22 0.23 0.26 0.29 0.32 0.33 0.34 0.35 0.36 0.38
0.13 0.14 0.14 0.16 0.16 0.13 0.11 0.10 0.10 0.10 0.11 0.12 0.13 0.14 0.15 0.15 0.15 0.13 0.12 0.12 0.13 0.14 0.15 0.15 0.17 0.17 0.16 0.15 0.15 0.14 0.15 0.17 0.19 0.23 0.24 0.24 0.28 0.32 0.36 0.35 0.34 0.35 0.36 0.40
0.19 0.18 0.17 0.18 0.17 0.16 0.14 0.13 0.12 0.13 0.13 0.13 0.13 0.14 0.15 0.15 0.14 0.12 0.12 0.14 0.15 0.15 0.14 0.14 0.16 0.15 0.15 0.16 0.18 0.19 0.20 0.23 0.25 0.26 0.26 0.26 0.29 0.33 0.37 0.35 0.35 0.36 0.38 0.40
0.20 0.19 0.17 0.17 0.16 0.16 0.15 0.14 0.13 0.14 0.16 0.15 0.14 0.15 0.16 0.16 0.16 0.15 0.15 0.16 0.17 0.15 0.11 0.12 0.14 0.15 0.16 0.17 0.20 0.21 0.24 0.27 0.31 0.33 0.33 0.32 0.33 0.36 0.38 0.36 0.37 0.40 0.40 0.41
0.16 0.15 0.15 0.15 0.14 0.14 0.15 0.14 0.15 0.16 0.17 0.17 0.17 0.17 0.17 0.16 0.16 0.17 0.18 0.19 0.17 0.14 0.11 0.12 0.12 0.12 0.15 0.20 0.23 0.24 0.26 0.28 0.31 0.33 0.33 0.33 0.35 0.37 0.40 0.39 0.39 0.42 0.43 0.43
0.16 0.14 0.13 0.13 0.12 0.12 0.13 0.13 0.14 0.14 0.15 0.17 0.18 0.18 0.17 0.17 0.15 0.16 0.17 0.18 0.18 0.19 0.15 0.13 0.13 0.15 0.21 0.24 0.20 0.21 0.24 0.26 0.30 0.34 0.36 0.37 0.38 0.39 0.41 0.43 0.44 0.44 0.46 0.49
0.17 0.15 0.15 0.14 0.12 0.12 0.14 0.15 0.13 0.14 0.16 0.16 0.16 0.17 0.19 0.20 0.20 0.19 0.17 0.16 0.18 0.23 0.20 0.17 0.20 0.25 0.32 0.26 0.20 0.21 0.23 0.25 0.27 0.30 0.35 0.40 0.43 0.44 0.47 0.46 0.46 0.48 0.50 0.53
0.19 0.17 0.15 0.14 0.13 0.15 0.17 0.17 0.16 0.15 0.16 0.17 0.16 0.15 0.16 0.19 0.22 0.21 0.20 0.22 0.25 0.27 0.23 0.23 0.28 0.33 0.36 0.28 0.25 0.25 0.27 0.28 0.28 0.28 0.31 0.35 0.41 0.44 0.46 0.48 0.50 0.51 0.50 0.49
0.19 0.18 0.18 0.18 0.20 0.22 0.20 0.19 0.20 0.18 0.19 0.22 0.21 0.18 0.16 0.19 0.23 0.25 0.23 0.23 0.28 0.31 0.28 0.29 0.34 0.37 0.35 0.31 0.31 0.32 0.34 0.36 0.38 0.37 0.36 0.38 0.42 0.46 0.50 0.53 0.56 0.59 0.58 0.54
0.21 0.21 0.23 0.26 0.26 0.24 0.23 0.23 0.22 0.20 0.20 0.22 0.22 0.20 0.19 0.20 0.21 0.22 0.22 0.24 0.26 0.32 0.35 0.34 0.33 0.35 0.36 0.38 0.39 0.39 0.38 0.40 0.41 0.41 0.41 0.45 0.49 0.53 0.58 0.62 0.63 0.66 0.65 0.61
0.22 0.23 0.25 0.25 0.24 0.24 0.25 0.25 0.23 0.21 0.21 0.23 0.23 0.21 0.21 0.22 0.24 0.25 0.25 0.28 0.31 0.34 0.39 0.43 0.42 0.43 0.45 0.45 0.45 0.45 0.45 0.47 0.47 0.48 0.49 0.51 0.54 0.57 0.61 0.66 0.69 0.71 0.72 0.71